<?xml version="1.0"?>
<gpx xmlns="http://www.topografix.com/GPX/1/1" xmlns:xsi="http://www.w3.org/2001/XMLSchema-instance" version="1.1" creator="GPX RubyGem 1.0.0 -- http://dougfales.github.io/gpx/" xsi:schemaLocation="http://www.topografix.com/GPX/1/1 http://www.topografix.com/GPX/1/1/gpx.xsd">
  <metadata>
    <name/>
    <time>2026-05-08T08:30:58+00:00</time>
    <bound minlat="90.0" minlon="180.0" maxlat="-90.0" maxlon="-180.0"/>
  </metadata>
  <trk>
    <name/>
    <trkseg>
      <trkpt lat="44.841443" lon="6.204493">
        <time>1970-01-01T00:00:00+00:00</time>
        <ele>2331.0</ele>
      </trkpt>
      <trkpt lat="44.841535" lon="6.204322">
        <time>1970-01-01T00:00:00+00:00</time>
        <ele>2336.0</ele>
      </trkpt>
      <trkpt lat="44.842159" lon="6.204532">
        <time>1970-01-01T00:00:00+00:00</time>
        <ele>2349.0</ele>
      </trkpt>
      <trkpt lat="44.842176" lon="6.204303">
        <time>1970-01-01T00:00:00+00:00</time>
        <ele>2346.0</ele>
      </trkpt>
      <trkpt lat="44.843315" lon="6.204221">
        <time>1970-01-01T00:00:00+00:00</time>
        <ele>2346.0</ele>
      </trkpt>
      <trkpt lat="44.843893" lon="6.203937">
        <time>1970-01-01T00:00:00+00:00</time>
        <ele>2352.0</ele>
      </trkpt>
      <trkpt lat="44.84396" lon="6.204027">
        <time>1970-01-01T00:00:00+00:00</time>
        <ele>2354.0</ele>
      </trkpt>
      <trkpt lat="44.843785" lon="6.201892">
        <time>1970-01-01T00:00:00+00:00</time>
        <ele>2379.0</ele>
      </trkpt>
      <trkpt lat="44.844159" lon="6.202304">
        <time>1970-01-01T00:00:00+00:00</time>
        <ele>2392.0</ele>
      </trkpt>
      <trkpt lat="44.844179" lon="6.202024">
        <time>1970-01-01T00:00:00+00:00</time>
        <ele>2399.0</ele>
      </trkpt>
      <trkpt lat="44.844386" lon="6.202275">
        <time>1970-01-01T00:00:00+00:00</time>
        <ele>2407.0</ele>
      </trkpt>
      <trkpt lat="44.844538" lon="6.201257">
        <time>1970-01-01T00:00:00+00:00</time>
        <ele>2432.0</ele>
      </trkpt>
      <trkpt lat="44.844634" lon="6.201427">
        <time>1970-01-01T00:00:00+00:00</time>
        <ele>2435.0</ele>
      </trkpt>
      <trkpt lat="44.844716" lon="6.201257">
        <time>1970-01-01T00:00:00+00:00</time>
        <ele>2442.0</ele>
      </trkpt>
      <trkpt lat="44.844965" lon="6.201372">
        <time>1970-01-01T00:00:00+00:00</time>
        <ele>2455.0</ele>
      </trkpt>
      <trkpt lat="44.845155" lon="6.201868">
        <time>1970-01-01T00:00:00+00:00</time>
        <ele>2465.0</ele>
      </trkpt>
      <trkpt lat="44.845518" lon="6.200222">
        <time>1970-01-01T00:00:00+00:00</time>
        <ele>2498.0</ele>
      </trkpt>
      <trkpt lat="44.84577" lon="6.200849">
        <time>1970-01-01T00:00:00+00:00</time>
        <ele>2511.0</ele>
      </trkpt>
      <trkpt lat="44.845817" lon="6.200758">
        <time>1970-01-01T00:00:00+00:00</time>
        <ele>2513.0</ele>
      </trkpt>
      <trkpt lat="44.845956" lon="6.200976">
        <time>1970-01-01T00:00:00+00:00</time>
        <ele>2520.0</ele>
      </trkpt>
      <trkpt lat="44.845998" lon="6.200802">
        <time>1970-01-01T00:00:00+00:00</time>
        <ele>2523.0</ele>
      </trkpt>
      <trkpt lat="44.846188" lon="6.201081">
        <time>1970-01-01T00:00:00+00:00</time>
        <ele>2535.0</ele>
      </trkpt>
      <trkpt lat="44.846184" lon="6.200577">
        <time>1970-01-01T00:00:00+00:00</time>
        <ele>2539.0</ele>
      </trkpt>
      <trkpt lat="44.846504" lon="6.200938">
        <time>1970-01-01T00:00:00+00:00</time>
        <ele>2554.0</ele>
      </trkpt>
      <trkpt lat="44.846711" lon="6.200852">
        <time>1970-01-01T00:00:00+00:00</time>
        <ele>2563.0</ele>
      </trkpt>
      <trkpt lat="44.846804" lon="6.20068">
        <time>1970-01-01T00:00:00+00:00</time>
        <ele>2568.0</ele>
      </trkpt>
      <trkpt lat="44.847061" lon="6.201371">
        <time>1970-01-01T00:00:00+00:00</time>
        <ele>2576.0</ele>
      </trkpt>
      <trkpt lat="44.847494" lon="6.200343">
        <time>1970-01-01T00:00:00+00:00</time>
        <ele>2603.0</ele>
      </trkpt>
      <trkpt lat="44.847574" lon="6.20058">
        <time>1970-01-01T00:00:00+00:00</time>
        <ele>2608.0</ele>
      </trkpt>
      <trkpt lat="44.847805" lon="6.20061">
        <time>1970-01-01T00:00:00+00:00</time>
        <ele>2615.0</ele>
      </trkpt>
      <trkpt lat="44.84785" lon="6.20023">
        <time>1970-01-01T00:00:00+00:00</time>
        <ele>2621.0</ele>
      </trkpt>
      <trkpt lat="44.848017" lon="6.200264">
        <time>1970-01-01T00:00:00+00:00</time>
        <ele>2630.0</ele>
      </trkpt>
      <trkpt lat="44.848405" lon="6.200854">
        <time>1970-01-01T00:00:00+00:00</time>
        <ele>2644.0</ele>
      </trkpt>
      <trkpt lat="44.849137" lon="6.201139">
        <time>1970-01-01T00:00:00+00:00</time>
        <ele>2675.0</ele>
      </trkpt>
      <trkpt lat="44.849467" lon="6.200883">
        <time>1970-01-01T00:00:00+00:00</time>
        <ele>2690.0</ele>
      </trkpt>
      <trkpt lat="44.849785" lon="6.200991">
        <time>1970-01-01T00:00:00+00:00</time>
        <ele>2702.0</ele>
      </trkpt>
      <trkpt lat="44.850147" lon="6.200675">
        <time>1970-01-01T00:00:00+00:00</time>
        <ele>2726.0</ele>
      </trkpt>
      <trkpt lat="44.850671" lon="6.20058">
        <time>1970-01-01T00:00:00+00:00</time>
        <ele>2754.0</ele>
      </trkpt>
      <trkpt lat="44.850862" lon="6.200255">
        <time>1970-01-01T00:00:00+00:00</time>
        <ele>2768.0</ele>
      </trkpt>
      <trkpt lat="44.851625" lon="6.200052">
        <time>1970-01-01T00:00:00+00:00</time>
        <ele>2788.0</ele>
      </trkpt>
      <trkpt lat="44.851764" lon="6.199896">
        <time>1970-01-01T00:00:00+00:00</time>
        <ele>2790.0</ele>
      </trkpt>
      <trkpt lat="44.852116" lon="6.199901">
        <time>1970-01-01T00:00:00+00:00</time>
        <ele>2802.0</ele>
      </trkpt>
      <trkpt lat="44.852374" lon="6.199767">
        <time>1970-01-01T00:00:00+00:00</time>
        <ele>2812.0</ele>
      </trkpt>
      <trkpt lat="44.852479" lon="6.199424">
        <time>1970-01-01T00:00:00+00:00</time>
        <ele>2818.0</ele>
      </trkpt>
      <trkpt lat="44.852317" lon="6.199583">
        <time>1970-01-01T00:00:00+00:00</time>
        <ele>2813.0</ele>
      </trkpt>
      <trkpt lat="44.852506" lon="6.19952">
        <time>1970-01-01T00:00:00+00:00</time>
        <ele>2818.0</ele>
      </trkpt>
      <trkpt lat="44.852875" lon="6.199752">
        <time>1970-01-01T00:00:00+00:00</time>
        <ele>2827.0</ele>
      </trkpt>
      <trkpt lat="44.853929" lon="6.199927">
        <time>1970-01-01T00:00:00+00:00</time>
        <ele>2882.0</ele>
      </trkpt>
      <trkpt lat="44.853928" lon="6.200317">
        <time>1970-01-01T00:00:00+00:00</time>
        <ele>2886.0</ele>
      </trkpt>
      <trkpt lat="44.854272" lon="6.200982">
        <time>1970-01-01T00:00:00+00:00</time>
        <ele>2914.0</ele>
      </trkpt>
      <trkpt lat="44.85483" lon="6.20104">
        <time>1970-01-01T00:00:00+00:00</time>
        <ele>2947.0</ele>
      </trkpt>
      <trkpt lat="44.855018" lon="6.200846">
        <time>1970-01-01T00:00:00+00:00</time>
        <ele>2962.0</ele>
      </trkpt>
      <trkpt lat="44.855312" lon="6.201049">
        <time>1970-01-01T00:00:00+00:00</time>
        <ele>2984.0</ele>
      </trkpt>
      <trkpt lat="44.855462" lon="6.200892">
        <time>1970-01-01T00:00:00+00:00</time>
        <ele>2995.0</ele>
      </trkpt>
      <trkpt lat="44.855802" lon="6.200833">
        <time>1970-01-01T00:00:00+00:00</time>
        <ele>3018.0</ele>
      </trkpt>
      <trkpt lat="44.856206" lon="6.200975">
        <time>1970-01-01T00:00:00+00:00</time>
        <ele>3055.0</ele>
      </trkpt>
      <trkpt lat="44.856473" lon="6.201342">
        <time>1970-01-01T00:00:00+00:00</time>
        <ele>3084.0</ele>
      </trkpt>
      <trkpt lat="44.856611" lon="6.201957">
        <time>1970-01-01T00:00:00+00:00</time>
        <ele>3123.0</ele>
      </trkpt>
      <trkpt lat="44.856843" lon="6.202107">
        <time>1970-01-01T00:00:00+00:00</time>
        <ele>3151.0</ele>
      </trkpt>
      <trkpt lat="44.856929" lon="6.202283">
        <time>1970-01-01T00:00:00+00:00</time>
        <ele>3170.0</ele>
      </trkpt>
      <trkpt lat="44.85708" lon="6.202153">
        <time>1970-01-01T00:00:00+00:00</time>
        <ele>3177.0</ele>
      </trkpt>
      <trkpt lat="44.857005" lon="6.202524">
        <time>1970-01-01T00:00:00+00:00</time>
        <ele>3194.0</ele>
      </trkpt>
      <trkpt lat="44.857254" lon="6.201982">
        <time>1970-01-01T00:00:00+00:00</time>
        <ele>3189.0</ele>
      </trkpt>
      <trkpt lat="44.857369" lon="6.201981">
        <time>1970-01-01T00:00:00+00:00</time>
        <ele>3202.0</ele>
      </trkpt>
      <trkpt lat="44.857466" lon="6.201185">
        <time>1970-01-01T00:00:00+00:00</time>
        <ele>3214.0</ele>
      </trkpt>
      <trkpt lat="44.857695" lon="6.201027">
        <time>1970-01-01T00:00:00+00:00</time>
        <ele>3248.0</ele>
      </trkpt>
      <trkpt lat="44.857636" lon="6.200763">
        <time>1970-01-01T00:00:00+00:00</time>
        <ele>3242.0</ele>
      </trkpt>
      <trkpt lat="44.857794" lon="6.200243">
        <time>1970-01-01T00:00:00+00:00</time>
        <ele>3269.0</ele>
      </trkpt>
      <trkpt lat="44.857851" lon="6.199148">
        <time>1970-01-01T00:00:00+00:00</time>
        <ele>3263.0</ele>
      </trkpt>
      <trkpt lat="44.857977" lon="6.198681">
        <time>1970-01-01T00:00:00+00:00</time>
        <ele>3294.0</ele>
      </trkpt>
      <trkpt lat="44.858346" lon="6.198561">
        <time>1970-01-01T00:00:00+00:00</time>
        <ele>3353.0</ele>
      </trkpt>
      <trkpt lat="44.858425" lon="6.198733">
        <time>1970-01-01T00:00:00+00:00</time>
        <ele>3369.0</ele>
      </trkpt>
      <trkpt lat="44.858563" lon="6.198687">
        <time>1970-01-01T00:00:00+00:00</time>
        <ele>3388.0</ele>
      </trkpt>
      <trkpt lat="44.858701" lon="6.198788">
        <time>1970-01-01T00:00:00+00:00</time>
        <ele>3412.0</ele>
      </trkpt>
      <trkpt lat="44.858764" lon="6.19899">
        <time>1970-01-01T00:00:00+00:00</time>
        <ele>3425.0</ele>
      </trkpt>
      <trkpt lat="44.859042" lon="6.198912">
        <time>1970-01-01T00:00:00+00:00</time>
        <ele>3441.0</ele>
      </trkpt>
      <trkpt lat="44.85896" lon="6.198148">
        <time>1970-01-01T00:00:00+00:00</time>
        <ele>3453.0</ele>
      </trkpt>
      <trkpt lat="44.858743" lon="6.197874">
        <time>1970-01-01T00:00:00+00:00</time>
        <ele>3432.0</ele>
      </trkpt>
      <trkpt lat="44.858907" lon="6.197291">
        <time>1970-01-01T00:00:00+00:00</time>
        <ele>3487.0</ele>
      </trkpt>
      <trkpt lat="44.858867" lon="6.197111">
        <time>1970-01-01T00:00:00+00:00</time>
        <ele>3486.0</ele>
      </trkpt>
      <trkpt lat="44.859056" lon="6.196952">
        <time>1970-01-01T00:00:00+00:00</time>
        <ele>3507.0</ele>
      </trkpt>
    </trkseg>
  </trk>
</gpx>
